Year,Month,Day,Hour,Minute,Value (Times are PST for temperature in C)
2011,08,11,00,00,11.70
2011,08,11,00,01,11.70
2011,08,11,00,02,11.70
2011,08,11,00,03,11.60
2011,08,11,00,04,11.60
2011,08,11,00,05,11.60
2011,08,11,00,06,11.60
2011,08,11,00,07,11.60
2011,08,11,00,08,11.60
2011,08,11,00,09,11.60
2011,08,11,00,10,11.60
2011,08,11,00,11,11.50
2011,08,11,00,12,11.40
2011,08,11,00,13,11.40
2011,08,11,00,14,11.40
2011,08,11,00,15,11.40
2011,08,11,00,16,11.40
2011,08,11,00,17,11.40
2011,08,11,00,18,11.30
2011,08,11,00,19,11.30
2011,08,11,00,20,11.30
2011,08,11,00,21,11.30
2011,08,11,00,22,11.30
2011,08,11,00,23,11.20
2011,08,11,00,24,11.20
2011,08,11,00,25,11.20
2011,08,11,00,26,11.20
2011,08,11,00,27,11.20
2011,08,11,00,28,11.20
2011,08,11,00,29,11.10
2011,08,11,00,30,11.10
2011,08,11,00,31,11.10
2011,08,11,00,32,11.10
2011,08,11,00,33,11.10
2011,08,11,00,34,11.10
2011,08,11,00,35,11.10
2011,08,11,00,36,11.10
2011,08,11,00,37,11.10
2011,08,11,00,38,11.10
2011,08,11,00,39,11.10
2011,08,11,00,40,11.00
2011,08,11,00,41,10.90
2011,08,11,00,42,10.90
2011,08,11,00,43,10.90
2011,08,11,00,44,10.90
2011,08,11,00,45,10.90
2011,08,11,00,46,10.90
2011,08,11,00,47,10.90
2011,08,11,00,48,10.90
2011,08,11,00,49,10.80
2011,08,11,00,50,10.80
2011,08,11,00,51,10.80
2011,08,11,00,52,10.80
2011,08,11,00,53,10.70
2011,08,11,00,54,10.70
2011,08,11,00,55,10.70
2011,08,11,00,56,10.70
2011,08,11,00,57,10.70
2011,08,11,00,58,10.70
2011,08,11,00,59,10.70
2011,08,11,01,00,10.70
2011,08,11,01,01,10.60
2011,08,11,01,02,10.60
2011,08,11,01,03,10.60
2011,08,11,01,04,10.60
2011,08,11,01,05,10.60
2011,08,11,01,06,10.60
2011,08,11,01,07,10.60
2011,08,11,01,08,10.60
2011,08,11,01,09,10.60
2011,08,11,01,10,10.60
2011,08,11,01,11,10.60
2011,08,11,01,12,10.60
2011,08,11,01,13,10.60
2011,08,11,01,14,10.50
2011,08,11,01,15,10.40
2011,08,11,01,16,10.40
2011,08,11,01,17,10.40
2011,08,11,01,18,10.40
2011,08,11,01,19,10.40
2011,08,11,01,20,10.40
2011,08,11,01,21,10.40
2011,08,11,01,22,10.30
2011,08,11,01,23,10.30
2011,08,11,01,24,10.30
2011,08,11,01,25,10.20
2011,08,11,01,26,10.20
2011,08,11,01,27,10.20
2011,08,11,01,28,10.20
2011,08,11,01,29,10.20
2011,08,11,01,30,10.20
2011,08,11,01,31,10.20
2011,08,11,01,32,10.20
2011,08,11,01,33,10.20
2011,08,11,01,34,10.10
2011,08,11,01,35,10.10
2011,08,11,01,36,10.10
2011,08,11,01,37,10.10
2011,08,11,01,38,10.10
2011,08,11,01,39,10.10
2011,08,11,01,40,10.10
2011,08,11,01,41,10.10
2011,08,11,01,42,10.10
2011,08,11,01,43,10.00
2011,08,11,01,44,9.90
2011,08,11,01,45,9.90
2011,08,11,01,46,9.90
2011,08,11,01,47,9.90
2011,08,11,01,48,9.90
2011,08,11,01,49,9.90
2011,08,11,01,50,9.90
2011,08,11,01,51,9.90
2011,08,11,01,52,9.90
2011,08,11,01,53,9.90
2011,08,11,01,54,9.90
2011,08,11,01,55,9.80
2011,08,11,01,56,9.80
2011,08,11,01,57,9.80
2011,08,11,01,58,9.80
2011,08,11,01,59,9.80
2011,08,11,02,00,9.80
2011,08,11,02,01,9.80
2011,08,11,02,02,9.80
2011,08,11,02,03,9.70
2011,08,11,02,04,9.70
2011,08,11,02,05,9.70
2011,08,11,02,06,9.70
2011,08,11,02,07,9.70
2011,08,11,02,08,9.70
2011,08,11,02,09,9.70
2011,08,11,02,10,9.70
2011,08,11,02,11,9.70
2011,08,11,02,12,9.70
2011,08,11,02,13,9.70
2011,08,11,02,14,9.70
2011,08,11,02,15,9.70
2011,08,11,02,16,9.70
2011,08,11,02,17,9.70
2011,08,11,02,18,9.70
2011,08,11,02,19,9.70
2011,08,11,02,20,9.70
2011,08,11,02,21,9.70
2011,08,11,02,22,9.70
2011,08,11,02,23,9.70
2011,08,11,02,24,9.70
2011,08,11,02,25,9.70
2011,08,11,02,26,9.60
2011,08,11,02,27,9.60
2011,08,11,02,28,9.60
2011,08,11,02,29,9.60
2011,08,11,02,30,9.60
2011,08,11,02,31,9.60
2011,08,11,02,32,9.60
2011,08,11,02,33,9.60
2011,08,11,02,34,9.60
2011,08,11,02,35,9.60
2011,08,11,02,36,9.60
2011,08,11,02,37,9.50
2011,08,11,02,38,9.50
2011,08,11,02,39,9.50
2011,08,11,02,40,9.50
2011,08,11,02,41,9.50
2011,08,11,02,42,9.50
2011,08,11,02,43,9.40
2011,08,11,02,44,9.40
2011,08,11,02,45,9.40
2011,08,11,02,46,9.40
2011,08,11,02,47,9.40
2011,08,11,02,48,9.40
2011,08,11,02,49,9.30
2011,08,11,02,50,9.30
2011,08,11,02,51,9.30
2011,08,11,02,52,9.30
2011,08,11,02,53,9.30
2011,08,11,02,54,9.30
2011,08,11,02,55,9.30
2011,08,11,02,56,9.30
2011,08,11,02,57,9.30
2011,08,11,02,58,9.30
2011,08,11,02,59,9.30
2011,08,11,03,00,9.30
2011,08,11,03,01,9.30
2011,08,11,03,02,9.30
2011,08,11,03,03,9.20
2011,08,11,03,04,9.20
2011,08,11,03,05,9.20
2011,08,11,03,06,9.20
2011,08,11,03,07,9.20
2011,08,11,03,08,9.20
2011,08,11,03,09,9.20
2011,08,11,03,10,9.20
2011,08,11,03,11,9.20
2011,08,11,03,12,9.20
2011,08,11,03,13,9.20
2011,08,11,03,14,9.20
2011,08,11,03,15,9.20
2011,08,11,03,16,9.20
2011,08,11,03,17,9.20
2011,08,11,03,18,9.20
2011,08,11,03,19,9.20
2011,08,11,03,20,9.20
2011,08,11,03,21,9.20
2011,08,11,03,22,9.20
2011,08,11,03,23,9.20
2011,08,11,03,24,9.20
2011,08,11,03,25,9.20
2011,08,11,03,26,9.20
2011,08,11,03,27,9.20
2011,08,11,03,28,9.20
2011,08,11,03,29,9.20
2011,08,11,03,30,9.20
2011,08,11,03,31,9.20
2011,08,11,03,32,9.20
2011,08,11,03,33,9.20
2011,08,11,03,34,9.20
2011,08,11,03,35,9.20
2011,08,11,03,36,9.20
2011,08,11,03,37,9.20
2011,08,11,03,38,9.20
2011,08,11,03,39,9.20
2011,08,11,03,40,9.20
2011,08,11,03,41,9.20
2011,08,11,03,42,9.10
2011,08,11,03,43,9.10
2011,08,11,03,44,9.10
2011,08,11,03,45,9.10
2011,08,11,03,46,9.10
2011,08,11,03,47,9.10
2011,08,11,03,48,9.10
2011,08,11,03,49,9.10
2011,08,11,03,50,9.10
2011,08,11,03,51,9.10
2011,08,11,03,52,9.10
2011,08,11,03,53,9.10
2011,08,11,03,54,9.10
2011,08,11,03,55,9.00
2011,08,11,03,56,9.00
2011,08,11,03,57,9.00
2011,08,11,03,58,9.00
2011,08,11,03,59,9.00
2011,08,11,04,00,9.00
2011,08,11,04,01,9.00
2011,08,11,04,02,9.00
2011,08,11,04,03,9.00
2011,08,11,04,04,9.00
2011,08,11,04,05,9.00
2011,08,11,04,06,8.90
2011,08,11,04,07,8.90
2011,08,11,04,08,8.90
2011,08,11,04,09,8.90
2011,08,11,04,10,8.90
2011,08,11,04,11,8.90
2011,08,11,04,12,8.90
2011,08,11,04,13,8.90
2011,08,11,04,14,8.90
2011,08,11,04,15,8.90
2011,08,11,04,16,8.90
2011,08,11,04,17,8.80
2011,08,11,04,18,8.80
2011,08,11,04,19,8.80
2011,08,11,04,20,8.80
2011,08,11,04,21,8.80
2011,08,11,04,22,8.80
2011,08,11,04,23,8.80
2011,08,11,04,24,8.80
2011,08,11,04,25,8.80
2011,08,11,04,26,8.90
2011,08,11,04,27,8.90
2011,08,11,04,28,8.90
2011,08,11,04,29,8.90
2011,08,11,04,30,8.90
2011,08,11,04,31,8.90
2011,08,11,04,32,8.90
2011,08,11,04,33,8.90
2011,08,11,04,34,8.90
2011,08,11,04,35,8.90
2011,08,11,04,36,8.80
2011,08,11,04,37,8.80
2011,08,11,04,38,8.80
2011,08,11,04,39,8.80
2011,08,11,04,40,8.80
2011,08,11,04,41,8.70
2011,08,11,04,42,8.70
2011,08,11,04,43,8.70
2011,08,11,04,44,8.70
2011,08,11,04,45,8.70
2011,08,11,04,46,8.70
2011,08,11,04,47,8.70
2011,08,11,04,48,8.70
2011,08,11,04,49,8.70
2011,08,11,04,50,8.70
2011,08,11,04,51,8.70
2011,08,11,04,52,8.70
2011,08,11,04,53,8.70
2011,08,11,04,54,8.70
2011,08,11,04,55,8.70
2011,08,11,04,56,8.70
2011,08,11,04,57,8.70
2011,08,11,04,58,8.70
2011,08,11,04,59,8.70
2011,08,11,05,00,8.70
2011,08,11,05,01,8.70
2011,08,11,05,02,8.70
2011,08,11,05,03,8.70
2011,08,11,05,04,8.70
2011,08,11,05,05,8.70
2011,08,11,05,06,8.70
2011,08,11,05,07,8.70
2011,08,11,05,08,8.70
2011,08,11,05,09,8.70
2011,08,11,05,10,8.70
2011,08,11,05,11,8.70
2011,08,11,05,12,8.70
2011,08,11,05,13,8.70
2011,08,11,05,14,8.70
2011,08,11,05,15,8.70
2011,08,11,05,16,8.70
2011,08,11,05,17,8.70
2011,08,11,05,18,8.70
2011,08,11,05,19,8.70
2011,08,11,05,20,8.70
2011,08,11,05,21,8.70
2011,08,11,05,22,8.60
2011,08,11,05,23,8.60
2011,08,11,05,24,8.60
2011,08,11,05,25,8.60
2011,08,11,05,26,8.60
2011,08,11,05,27,8.60
2011,08,11,05,28,8.60
2011,08,11,05,29,8.60
2011,08,11,05,30,8.50
2011,08,11,05,31,8.50
2011,08,11,05,32,8.50
2011,08,11,05,33,8.50
2011,08,11,05,34,8.50
2011,08,11,05,35,8.50
2011,08,11,05,36,8.50
2011,08,11,05,37,8.40
2011,08,11,05,38,8.40
2011,08,11,05,39,8.50
2011,08,11,05,40,8.50
2011,08,11,05,41,8.50
2011,08,11,05,42,8.50
2011,08,11,05,43,8.40
2011,08,11,05,44,8.40
2011,08,11,05,45,8.40
2011,08,11,05,46,8.40
2011,08,11,05,47,8.40
2011,08,11,05,48,8.40
2011,08,11,05,49,8.40
2011,08,11,05,50,8.40
2011,08,11,05,51,8.40
2011,08,11,05,52,8.40
2011,08,11,05,53,8.40
2011,08,11,05,54,8.50
2011,08,11,05,55,8.50
2011,08,11,05,56,8.50
2011,08,11,05,57,8.50
2011,08,11,05,58,8.50
2011,08,11,05,59,8.50
2011,08,11,06,00,8.50
2011,08,11,06,01,8.50
2011,08,11,06,02,8.50
2011,08,11,06,03,8.50
2011,08,11,06,04,8.50
2011,08,11,06,05,8.50
2011,08,11,06,06,8.50
2011,08,11,06,07,8.50
2011,08,11,06,08,8.50
2011,08,11,06,09,8.50
2011,08,11,06,10,8.50
2011,08,11,06,11,8.50
2011,08,11,06,12,8.50
2011,08,11,06,13,8.50
2011,08,11,06,14,8.50
2011,08,11,06,15,8.50
2011,08,11,06,16,8.50
2011,08,11,06,17,8.60
2011,08,11,06,18,8.60
2011,08,11,06,19,8.60
2011,08,11,06,20,8.70
2011,08,11,06,21,8.70
2011,08,11,06,22,8.70
2011,08,11,06,23,8.70
2011,08,11,06,24,8.70
2011,08,11,06,25,8.70
2011,08,11,06,26,8.70
2011,08,11,06,27,8.80
2011,08,11,06,28,8.80
2011,08,11,06,29,8.90
2011,08,11,06,30,8.90
2011,08,11,06,31,9.00
2011,08,11,06,32,9.00
2011,08,11,06,33,9.10
2011,08,11,06,34,9.10
2011,08,11,06,35,9.10
2011,08,11,06,36,9.20
2011,08,11,06,37,9.20
2011,08,11,06,38,9.20
2011,08,11,06,39,9.20
2011,08,11,06,40,9.20
2011,08,11,06,41,9.20
2011,08,11,06,42,9.20
2011,08,11,06,43,9.20
2011,08,11,06,44,9.30
2011,08,11,06,45,9.30
2011,08,11,06,46,9.30
2011,08,11,06,47,9.30
2011,08,11,06,48,9.30
2011,08,11,06,49,9.40
2011,08,11,06,50,9.40
2011,08,11,06,51,9.40
2011,08,11,06,52,9.50
2011,08,11,06,53,9.50
2011,08,11,06,54,9.50
2011,08,11,06,55,9.50
2011,08,11,06,56,9.60
2011,08,11,06,57,9.60
2011,08,11,06,58,9.70
2011,08,11,06,59,9.70
2011,08,11,07,00,9.70
2011,08,11,07,01,9.70
2011,08,11,07,02,9.70
2011,08,11,07,03,9.80
2011,08,11,07,04,9.80
2011,08,11,07,05,9.80
2011,08,11,07,06,9.90
2011,08,11,07,07,9.90
2011,08,11,07,08,9.90
2011,08,11,07,09,9.90
2011,08,11,07,10,9.90
2011,08,11,07,11,10.10
2011,08,11,07,12,10.10
2011,08,11,07,13,10.10
2011,08,11,07,14,10.10
2011,08,11,07,15,10.20
2011,08,11,07,16,10.20
2011,08,11,07,17,10.30
2011,08,11,07,18,10.30
2011,08,11,07,19,10.30
2011,08,11,07,20,10.40
2011,08,11,07,21,10.40
2011,08,11,07,22,10.40
2011,08,11,07,23,10.40
2011,08,11,07,24,10.40
2011,08,11,07,25,10.40
2011,08,11,07,26,10.40
2011,08,11,07,27,10.40
2011,08,11,07,28,10.60
2011,08,11,07,29,10.60
2011,08,11,07,30,10.60
2011,08,11,07,31,10.60
2011,08,11,07,32,10.60
2011,08,11,07,33,10.60
2011,08,11,07,34,10.60
2011,08,11,07,35,10.70
2011,08,11,07,36,10.70
2011,08,11,07,37,10.70
2011,08,11,07,38,10.80
2011,08,11,07,39,10.80
2011,08,11,07,40,10.90
2011,08,11,07,41,10.90
2011,08,11,07,42,10.90
2011,08,11,07,43,11.00
2011,08,11,07,44,11.10
2011,08,11,07,45,11.10
2011,08,11,07,46,11.10
2011,08,11,07,47,11.10
2011,08,11,07,48,11.20
2011,08,11,07,49,11.20
2011,08,11,07,50,11.30
2011,08,11,07,51,11.30
2011,08,11,07,52,11.30
2011,08,11,07,53,11.40
2011,08,11,07,54,11.40
2011,08,11,07,55,11.40
2011,08,11,07,56,11.50
2011,08,11,07,57,11.60
2011,08,11,07,58,11.60
2011,08,11,07,59,11.70
2011,08,11,08,00,11.70
2011,08,11,08,01,11.70
2011,08,11,08,02,11.80
2011,08,11,08,03,11.80
2011,08,11,08,04,11.90
2011,08,11,08,05,11.90
2011,08,11,08,06,12.00
2011,08,11,08,07,12.00
2011,08,11,08,08,12.10
2011,08,11,08,09,12.10
2011,08,11,08,10,12.20
2011,08,11,08,11,12.20
2011,08,11,08,12,12.30
2011,08,11,08,13,12.30
2011,08,11,08,14,12.30
2011,08,11,08,15,12.40
2011,08,11,08,16,12.40
2011,08,11,08,17,12.50
2011,08,11,08,18,12.50
2011,08,11,08,19,12.60
2011,08,11,08,20,12.60
2011,08,11,08,21,12.70
2011,08,11,08,22,12.70
2011,08,11,08,23,12.80
2011,08,11,08,24,12.80
2011,08,11,08,25,12.80
2011,08,11,08,26,12.90
2011,08,11,08,27,13.00
2011,08,11,08,28,13.10
2011,08,11,08,29,13.10
2011,08,11,08,30,13.20
2011,08,11,08,31,13.20
2011,08,11,08,32,13.30
2011,08,11,08,33,13.30
2011,08,11,08,34,13.40
2011,08,11,08,35,13.40
2011,08,11,08,36,13.50
2011,08,11,08,37,13.50
2011,08,11,08,38,13.60
2011,08,11,08,39,13.70
2011,08,11,08,40,13.70
2011,08,11,08,41,13.70
2011,08,11,08,42,13.70
2011,08,11,08,43,13.70
2011,08,11,08,44,13.70
2011,08,11,08,45,13.70
2011,08,11,08,46,13.80
2011,08,11,08,47,13.80
2011,08,11,08,48,13.80
2011,08,11,08,49,13.90
2011,08,11,08,50,13.90
2011,08,11,08,51,14.00
2011,08,11,08,52,14.00
2011,08,11,08,53,14.10
2011,08,11,08,54,14.20
2011,08,11,08,55,14.20
2011,08,11,08,56,14.20
2011,08,11,08,57,14.30
2011,08,11,08,58,14.40
2011,08,11,08,59,14.50
2011,08,11,09,00,14.60
2011,08,11,09,01,14.70
2011,08,11,09,02,14.80
2011,08,11,09,03,14.80
2011,08,11,09,04,14.90
2011,08,11,09,05,15.00
2011,08,11,09,06,15.10
2011,08,11,09,07,15.20
2011,08,11,09,08,15.30
2011,08,11,09,09,15.50
2011,08,11,09,10,15.50
2011,08,11,09,11,15.70
2011,08,11,09,12,15.80
2011,08,11,09,13,16.00
2011,08,11,09,14,16.10
2011,08,11,09,15,16.20
2011,08,11,09,16,16.30
2011,08,11,09,17,16.40
2011,08,11,09,18,16.50
2011,08,11,09,19,16.60
2011,08,11,09,20,16.60
2011,08,11,09,21,16.70
2011,08,11,09,22,16.70
2011,08,11,09,23,16.70
2011,08,11,09,24,16.70
2011,08,11,09,25,16.70
2011,08,11,09,26,16.70
2011,08,11,09,27,16.70
2011,08,11,09,28,16.70
2011,08,11,09,29,16.70
2011,08,11,09,30,16.70
2011,08,11,09,31,16.70
2011,08,11,09,32,16.70
2011,08,11,09,33,16.70
2011,08,11,09,34,16.60
2011,08,11,09,35,16.40
2011,08,11,09,36,16.30
2011,08,11,09,37,16.30
2011,08,11,09,38,16.20
2011,08,11,09,39,16.20
2011,08,11,09,40,16.20
2011,08,11,09,41,16.10
2011,08,11,09,42,16.10
2011,08,11,09,43,16.20
2011,08,11,09,44,16.20
2011,08,11,09,45,16.30
2011,08,11,09,46,16.30
2011,08,11,09,47,16.40
2011,08,11,09,48,16.50
2011,08,11,09,49,16.60
2011,08,11,09,50,16.80
2011,08,11,09,51,16.90
2011,08,11,09,52,17.10
2011,08,11,09,53,17.20
2011,08,11,09,54,17.30
2011,08,11,09,55,17.50
2011,08,11,09,56,17.60
2011,08,11,09,57,17.80
2011,08,11,09,58,17.90
2011,08,11,09,59,18.10
2011,08,11,10,00,18.30
2011,08,11,10,01,18.40
2011,08,11,10,02,18.50
2011,08,11,10,03,18.50
2011,08,11,10,04,18.40
2011,08,11,10,05,18.40
2011,08,11,10,06,18.40
2011,08,11,10,07,18.40
2011,08,11,10,08,18.30
2011,08,11,10,09,18.30
2011,08,11,10,10,18.20
2011,08,11,10,11,18.20
2011,08,11,10,12,18.20
2011,08,11,10,13,18.30
2011,08,11,10,14,18.40
2011,08,11,10,15,18.50
2011,08,11,10,16,18.60
2011,08,11,10,17,18.70
2011,08,11,10,18,18.80
2011,08,11,10,19,18.80
2011,08,11,10,20,18.90
2011,08,11,10,21,19.00
2011,08,11,10,22,19.10
2011,08,11,10,23,19.20
2011,08,11,10,24,19.30
2011,08,11,10,25,19.40
2011,08,11,10,26,19.40
2011,08,11,10,27,19.40
2011,08,11,10,28,19.40
2011,08,11,10,29,19.30
2011,08,11,10,30,19.20
2011,08,11,10,31,19.20
2011,08,11,10,32,19.10
2011,08,11,10,33,19.10
2011,08,11,10,34,19.10
2011,08,11,10,35,19.10
2011,08,11,10,36,19.10
2011,08,11,10,37,19.10
2011,08,11,10,38,19.10
2011,08,11,10,39,19.20
2011,08,11,10,40,19.20
2011,08,11,10,41,19.10
2011,08,11,10,42,19.10
2011,08,11,10,43,19.10
2011,08,11,10,44,19.10
2011,08,11,10,45,19.10
2011,08,11,10,46,19.10
2011,08,11,10,47,19.20
2011,08,11,10,48,19.10
2011,08,11,10,49,19.10
2011,08,11,10,50,19.10
2011,08,11,10,51,19.10
2011,08,11,10,52,19.10
2011,08,11,10,53,19.20
2011,08,11,10,54,19.20
2011,08,11,10,55,19.30
2011,08,11,10,56,19.40
2011,08,11,10,57,19.60
2011,08,11,10,58,19.60
2011,08,11,10,59,19.70
2011,08,11,11,00,19.80
2011,08,11,11,01,19.90
2011,08,11,11,02,19.90
2011,08,11,11,03,19.90
2011,08,11,11,04,19.90
2011,08,11,11,05,19.90
2011,08,11,11,06,19.90
2011,08,11,11,07,19.90
2011,08,11,11,08,19.90
2011,08,11,11,09,20.00
2011,08,11,11,10,20.10
2011,08,11,11,11,20.20
2011,08,11,11,12,20.20
2011,08,11,11,13,20.20
2011,08,11,11,14,20.20
2011,08,11,11,15,20.20
2011,08,11,11,16,20.20
2011,08,11,11,17,20.20
2011,08,11,11,18,20.20
2011,08,11,11,19,20.20
2011,08,11,11,20,20.10
2011,08,11,11,21,19.90
2011,08,11,11,22,19.80
2011,08,11,11,23,19.70
2011,08,11,11,24,19.60
2011,08,11,11,25,19.40
2011,08,11,11,26,19.40
2011,08,11,11,27,19.30
2011,08,11,11,28,19.30
2011,08,11,11,29,19.20
2011,08,11,11,30,19.20
2011,08,11,11,31,19.20
2011,08,11,11,32,19.30
2011,08,11,11,33,19.30
2011,08,11,11,34,19.40
2011,08,11,11,35,19.50
2011,08,11,11,36,19.50
2011,08,11,11,37,19.60
2011,08,11,11,38,19.60
2011,08,11,11,39,19.70
2011,08,11,11,40,19.80
2011,08,11,11,41,19.90
2011,08,11,11,42,19.90
2011,08,11,11,43,19.90
2011,08,11,11,44,19.90
2011,08,11,11,45,19.90
2011,08,11,11,46,20.00
2011,08,11,11,47,20.10
2011,08,11,11,48,20.10
2011,08,11,11,49,20.20
2011,08,11,11,50,20.20
2011,08,11,11,51,20.20
2011,08,11,11,52,20.20
2011,08,11,11,53,20.20
2011,08,11,11,54,20.20
2011,08,11,11,55,20.20
2011,08,11,11,56,20.20
2011,08,11,11,57,20.20
2011,08,11,11,58,20.20
2011,08,11,11,59,20.30
2011,08,11,12,00,20.40
2011,08,11,12,01,20.40
2011,08,11,12,02,20.50
2011,08,11,12,03,20.60
2011,08,11,12,04,20.60
2011,08,11,12,05,20.50
2011,08,11,12,06,20.50
2011,08,11,12,07,20.50
2011,08,11,12,08,20.40
2011,08,11,12,09,20.50
2011,08,11,12,10,20.50
2011,08,11,12,11,20.50
2011,08,11,12,12,20.50
2011,08,11,12,13,20.50
2011,08,11,12,14,20.50
2011,08,11,12,15,20.30
2011,08,11,12,16,20.20
2011,08,11,12,17,20.20
2011,08,11,12,18,20.20
2011,08,11,12,19,20.30
2011,08,11,12,20,20.40
2011,08,11,12,21,20.50
2011,08,11,12,22,20.50
2011,08,11,12,23,20.60
2011,08,11,12,24,20.70
2011,08,11,12,25,20.80
2011,08,11,12,26,20.80
2011,08,11,12,27,20.80
2011,08,11,12,28,20.70
2011,08,11,12,29,20.80
2011,08,11,12,30,20.80
2011,08,11,12,31,20.80
2011,08,11,12,32,20.80
2011,08,11,12,33,20.80
2011,08,11,12,34,20.90
2011,08,11,12,35,20.90
2011,08,11,12,36,21.00
2011,08,11,12,37,21.00
2011,08,11,12,38,21.10
2011,08,11,12,39,21.20
2011,08,11,12,40,21.20
2011,08,11,12,41,21.20
2011,08,11,12,42,21.10
2011,08,11,12,43,21.10
2011,08,11,12,44,21.00
2011,08,11,12,45,21.00
2011,08,11,12,46,20.80
2011,08,11,12,47,20.70
2011,08,11,12,48,20.70
2011,08,11,12,49,20.60
2011,08,11,12,50,20.70
2011,08,11,12,51,20.70
2011,08,11,12,52,20.70
2011,08,11,12,53,20.70
2011,08,11,12,54,20.70
2011,08,11,12,55,20.70
2011,08,11,12,56,20.80
2011,08,11,12,57,20.80
2011,08,11,12,58,20.90
2011,08,11,12,59,21.00
2011,08,11,13,00,21.00
2011,08,11,13,01,21.10
2011,08,11,13,02,21.10
2011,08,11,13,03,21.20
2011,08,11,13,04,21.30
2011,08,11,13,05,21.40
2011,08,11,13,06,21.40
2011,08,11,13,07,21.40
2011,08,11,13,08,21.40
2011,08,11,13,09,21.40
2011,08,11,13,10,21.30
2011,08,11,13,11,21.30
2011,08,11,13,12,21.30
2011,08,11,13,13,21.30
2011,08,11,13,14,21.30
2011,08,11,13,15,21.40
2011,08,11,13,16,21.40
2011,08,11,13,17,21.40
2011,08,11,13,18,21.30
2011,08,11,13,19,21.30
2011,08,11,13,20,21.30
2011,08,11,13,21,21.30
2011,08,11,13,22,21.30
2011,08,11,13,23,21.20
2011,08,11,13,24,21.30
2011,08,11,13,25,21.30
2011,08,11,13,26,21.30
2011,08,11,13,27,21.30
2011,08,11,13,28,21.30
2011,08,11,13,29,21.30
2011,08,11,13,30,21.20
2011,08,11,13,31,21.10
2011,08,11,13,32,21.10
2011,08,11,13,33,21.20
2011,08,11,13,34,21.20
2011,08,11,13,35,21.20
2011,08,11,13,36,21.20
2011,08,11,13,37,21.20
2011,08,11,13,38,21.20
2011,08,11,13,39,21.20
2011,08,11,13,40,21.20
2011,08,11,13,41,21.20
2011,08,11,13,42,21.20
2011,08,11,13,43,21.20
2011,08,11,13,44,21.20
2011,08,11,13,45,21.20
2011,08,11,13,46,21.20
2011,08,11,13,47,21.20
2011,08,11,13,48,21.20
2011,08,11,13,49,21.20
2011,08,11,13,50,21.10
2011,08,11,13,51,21.10
2011,08,11,13,52,21.00
2011,08,11,13,53,21.00
2011,08,11,13,54,21.00
2011,08,11,13,55,21.10
2011,08,11,13,56,21.10
2011,08,11,13,57,21.20
2011,08,11,13,58,21.20
2011,08,11,13,59,21.30
2011,08,11,14,00,21.30
2011,08,11,14,01,21.30
2011,08,11,14,02,21.20
2011,08,11,14,03,21.10
2011,08,11,14,04,21.10
2011,08,11,14,05,21.10
2011,08,11,14,06,21.20
2011,08,11,14,07,21.20
2011,08,11,14,08,21.10
2011,08,11,14,09,21.00
2011,08,11,14,10,21.00
2011,08,11,14,11,20.90
2011,08,11,14,12,20.90
2011,08,11,14,13,20.90
2011,08,11,14,14,20.80
2011,08,11,14,15,20.80
2011,08,11,14,16,20.80
2011,08,11,14,17,20.70
2011,08,11,14,18,20.70
2011,08,11,14,19,20.70
2011,08,11,14,20,20.70
2011,08,11,14,21,20.70
2011,08,11,14,22,20.80
2011,08,11,14,23,20.80
2011,08,11,14,24,20.80
2011,08,11,14,25,20.90
2011,08,11,14,26,20.90
2011,08,11,14,27,21.00
2011,08,11,14,28,21.00
2011,08,11,14,29,21.10
2011,08,11,14,30,21.20
2011,08,11,14,31,21.10
2011,08,11,14,32,21.10
2011,08,11,14,33,21.00
2011,08,11,14,34,20.90
2011,08,11,14,35,20.90
2011,08,11,14,36,20.80
2011,08,11,14,37,20.80
2011,08,11,14,38,20.80
2011,08,11,14,39,20.80
2011,08,11,14,40,20.80
2011,08,11,14,41,20.90
2011,08,11,14,42,20.90
2011,08,11,14,43,21.00
2011,08,11,14,44,21.00
2011,08,11,14,45,21.00
2011,08,11,14,46,21.00
2011,08,11,14,47,21.10
2011,08,11,14,48,21.10
2011,08,11,14,49,21.20
2011,08,11,14,50,21.20
2011,08,11,14,51,21.20
2011,08,11,14,52,21.20
2011,08,11,14,53,21.20
2011,08,11,14,54,21.30
2011,08,11,14,55,21.30
2011,08,11,14,56,21.30
2011,08,11,14,57,21.40
2011,08,11,14,58,21.50
2011,08,11,14,59,21.50
2011,08,11,15,00,21.40
2011,08,11,15,01,21.50
2011,08,11,15,02,21.60
2011,08,11,15,03,21.60
2011,08,11,15,04,21.40
2011,08,11,15,05,21.40
2011,08,11,15,06,21.40
2011,08,11,15,07,21.40
2011,08,11,15,08,21.40
2011,08,11,15,09,21.40
2011,08,11,15,10,21.60
2011,08,11,15,11,21.60
2011,08,11,15,12,21.60
2011,08,11,15,13,21.60
2011,08,11,15,14,21.60
2011,08,11,15,15,21.60
2011,08,11,15,16,21.50
2011,08,11,15,17,21.40
2011,08,11,15,18,21.40
2011,08,11,15,19,21.40
2011,08,11,15,20,21.40
2011,08,11,15,21,21.30
2011,08,11,15,22,21.30
2011,08,11,15,23,21.30
2011,08,11,15,24,21.30
2011,08,11,15,25,21.30
2011,08,11,15,26,21.30
2011,08,11,15,27,21.30
2011,08,11,15,28,21.30
2011,08,11,15,29,21.40
2011,08,11,15,30,21.40
2011,08,11,15,31,21.40
2011,08,11,15,32,21.40
2011,08,11,15,33,21.40
2011,08,11,15,34,21.40
2011,08,11,15,35,21.40
2011,08,11,15,36,21.50
2011,08,11,15,37,21.60
2011,08,11,15,38,21.60
2011,08,11,15,39,21.60
2011,08,11,15,40,21.60
2011,08,11,15,41,21.60
2011,08,11,15,42,21.60
2011,08,11,15,43,21.60
2011,08,11,15,44,21.50
2011,08,11,15,45,21.40
2011,08,11,15,46,21.30
2011,08,11,15,47,21.30
2011,08,11,15,48,21.30
2011,08,11,15,49,21.30
2011,08,11,15,50,21.30
2011,08,11,15,51,21.30
2011,08,11,15,52,21.30
2011,08,11,15,53,21.30
2011,08,11,15,54,21.30
2011,08,11,15,55,21.30
2011,08,11,15,56,21.30
2011,08,11,15,57,21.20
2011,08,11,15,58,21.20
2011,08,11,15,59,21.20
2011,08,11,16,00,21.30
2011,08,11,16,01,21.30
2011,08,11,16,02,21.30
2011,08,11,16,03,21.30
2011,08,11,16,04,21.20
2011,08,11,16,05,21.30
2011,08,11,16,06,21.30
2011,08,11,16,07,21.30
2011,08,11,16,08,21.30
2011,08,11,16,09,21.30
2011,08,11,16,10,21.30
2011,08,11,16,11,21.40
2011,08,11,16,12,21.40
2011,08,11,16,13,21.50
2011,08,11,16,14,21.60
2011,08,11,16,15,21.60
2011,08,11,16,16,21.60
2011,08,11,16,17,21.60
2011,08,11,16,18,21.60
2011,08,11,16,19,21.60
2011,08,11,16,20,21.60
2011,08,11,16,21,21.60
2011,08,11,16,22,21.60
2011,08,11,16,23,21.60
2011,08,11,16,24,21.50
2011,08,11,16,25,21.40
2011,08,11,16,26,21.30
2011,08,11,16,27,21.30
2011,08,11,16,28,21.30
2011,08,11,16,29,21.30
2011,08,11,16,30,21.30
2011,08,11,16,31,21.40
2011,08,11,16,32,21.50
2011,08,11,16,33,21.70
2011,08,11,16,34,21.90
2011,08,11,16,35,22.00
2011,08,11,16,36,22.10
2011,08,11,16,37,22.20
2011,08,11,16,38,22.30
2011,08,11,16,39,22.30
2011,08,11,16,40,22.40
2011,08,11,16,41,22.40
2011,08,11,16,42,22.30
2011,08,11,16,43,22.30
2011,08,11,16,44,22.30
2011,08,11,16,45,22.30
2011,08,11,16,46,22.30
2011,08,11,16,47,22.10
2011,08,11,16,48,22.00
2011,08,11,16,49,22.00
2011,08,11,16,50,22.00
2011,08,11,16,51,21.90
2011,08,11,16,52,21.90
2011,08,11,16,53,21.90
2011,08,11,16,54,22.00
2011,08,11,16,55,22.00
2011,08,11,16,56,22.00
2011,08,11,16,57,21.90
2011,08,11,16,58,21.70
2011,08,11,16,59,21.70
2011,08,11,17,00,21.70
2011,08,11,17,01,21.60
2011,08,11,17,02,21.50
2011,08,11,17,03,21.40
2011,08,11,17,04,21.30
2011,08,11,17,05,21.30
2011,08,11,17,06,21.20
2011,08,11,17,07,21.20
2011,08,11,17,08,21.20
2011,08,11,17,09,21.20
2011,08,11,17,10,21.20
2011,08,11,17,11,21.20
2011,08,11,17,12,21.30
2011,08,11,17,13,21.30
2011,08,11,17,14,21.30
2011,08,11,17,15,21.30
2011,08,11,17,16,21.30
2011,08,11,17,17,21.30
2011,08,11,17,18,21.30
2011,08,11,17,19,21.30
2011,08,11,17,20,21.30
2011,08,11,17,21,21.30
2011,08,11,17,22,21.30
2011,08,11,17,23,21.30
2011,08,11,17,24,21.40
2011,08,11,17,25,21.40
2011,08,11,17,26,21.50
2011,08,11,17,27,21.60
2011,08,11,17,28,21.60
2011,08,11,17,29,21.60
2011,08,11,17,30,21.60
2011,08,11,17,31,21.60
2011,08,11,17,32,21.50
2011,08,11,17,33,21.40